Regional Weather Roundup
Issued by NWS Newport/Morehead, NC

Current Version | Previous Version | Graphics & Text | Print | Product List | Glossary On
Versions: 1 2 3 4 5 6 7 8 9 10 11 12 13 14 15 16 17 18 19 20 21 22 23 24 25 26 27 28 29 30 31 32 33 34 35 36 37 38 39 40 41 42 43 44 45 46 47 48 49 50
000 ASUS42 KMHX 301025 RWRMHX WEATHER ROUNDUP FOR EASTERN NORTH CAROLINA NATIONAL WEATHER SERVICE NEWPORT/MOREHEAD CITY NC 600 AM EDT SAT JUL 30 2016 NOTE: "FAIR" INDICATES FEW OR NO CLOUDS BELOW 12,000 FEET WITH NO SIGNIFICANT WEATHER AND/OR OBSTRUCTIONS TO VISIBILITY NCZ015>017-031-032-045>047-102-103-301100- NORTH COAST CITY SKY/WX TMP DP RH WIND PRES REMARKS EDENTON CLEAR N/A N/A N/A CALM 29.96R ELIZABETH CITY CLEAR 75 73 93 CALM 29.95R KITTY HAWK SUNNY 74 74 100 CALM 29.95R MANTEO N/A 74 74 100 CALM 29.96R $$ NCZ045>047-081-094-103-104-301100- CENTRAL COAST CITY SKY/WX TMP DP RH WIND PRES REMARKS FRISCO CLEAR 78 77 96 E5 29.95R $$ NCZ095-097-098-100-101-301100- SOUTHERN COAST CITY SKY/WX TMP DP RH WIND PRES REMARKS BEAUFORT CLEAR 81 80 97 CALM 29.94R CEDAR ISLAND NOT AVBL JACKSONVILLE MOCLDY 79 75 87 CALM 29.93R PINEY ISLAND NOT AVBL WILMINGTON PTCLDY 79 76 90 CALM 29.94R $$ NCZ011>013-027>030-043-044-078>080-089-090>093-098-301100- COASTAL PLAIN CITY SKY/WX TMP DP RH WIND PRES REMARKS AHOSKIE CLEAR 72 71 98 CALM 29.95S FOG CLINTON CLEAR 75 74 99 CALM 29.95R ELIZABETHTOWN PTCLDY 77 77 99 CALM 29.94S GOLDSBORO CLEAR 75 75 100 SE2 29.92S GREENVILLE CLEAR 77 77 100 CALM 29.97R HAVELOCK CLEAR 77 75 93 CALM 29.95R KENANSVILLE NOT AVBL KINSTON CLEAR 74 73 96 CALM 29.95R NEW BERN CLEAR 77 75 93 CALM 29.95R RICHLANDS MOCLDY 75 74 96 CALM 29.95R ROCKY MOUNT CLEAR 73 73 100 CALM 29.95R WASHINGTON CLEAR 74 73 96 CALM 29.95R WHITEVILLE CLEAR 77 75 94 CALM 29.94R $$ AMZ130-135-150-152-154-156-158-170-250-252-270-ANZ085-086-088-633-658-670-301100- MARINE OBSERVATIONS STATION/POSITION TIME TEMP WIND PRES WAVE SWELL AIR SEA DIR/SP/G HT/PER HT/PER (UTC) (F) (DEG/KT/KT) (MB) (FT/S) (FT/S) CHESAPEAKE LIGHT NOT AVBL 64 E VA BEACH 0950 80 83 60/ 6/ 8 1014.0 3/ 7 2/ 7 DUCK 1000 79 71 40/ 3/ 3 1013.8 2 E DUCK 1011 79 N/A 1/ 8 OREGON INLET 1000 77 79 40/ 3/ 4 1014.3 13E OREGON INLT 1000 78 N/A 3/ 5 2/ 5 HATTERAS CG 1000 80 83 90/ 3/ 4 1013.8 DIAMOND BUOY 0950 83 86 10/ 4/ 6 1014.0 2/ 6 2/ 6 CAPE LOOKOUT 1000 83 310/ 3/ 4 1013.6 BEAUFORT LAB 1000 82 83 360/ 2/ 4 1013.2 30 SE NEW RVR IN 1008 84 85 250/ 10/ 12 1013.9 30 SE NEW RVR IN 0925 85 N/A 3/ 6 27 SE WRIGHTSVLE 1008 84 84 240/ 14/ 17 1014.1 5 SE WRIGHTSVLE 0908 81 80 220/ 4/ 6 1014.2 225 S CAPE HAT 0950 84 84 200/ 10/ 12 1016.4 3/ 6 3/ 6 41 SE CHARLESTON 0950 86 86 240/ 16/ 19 1013.3 4/ 5 $$

USA.gov is the U.S. government's official web portal to all federal, state and local government web resources and services.